GLD166 SWLB-SBGM

Flight info

Callsign GLD166
Flight time 1h 31m
Altitude 4500
Route 0747S06445W 0831S06445W 0948S06456W 1027S06460W
Aircraft C182/M-SDFGIRY/S

Departure

Time 2026-05-05 12:02
Airport Lábrea Airport (SWLB)

Arrival

Time 2026-05-05 13:34
Airport Guajará-Mirim Airport (SBGM)
Time Latitude Longitude Altitude Speed Heading
2026-05-05 11:59 -7.28230 -64.77121 237 ft 0 kts 356°
2026-05-05 11:59 -7.28243 -64.77104 234 ft 7 kts 137°
2026-05-05 12:00 -7.28269 -64.77056 237 ft 4 kts 100°
2026-05-05 12:00 -7.28268 -64.77022 236 ft 0 kts 86°
2026-05-05 12:01 -7.28266 -64.76990 236 ft 12 kts 86°
2026-05-05 12:01 -7.28185 -64.76930 235 ft 34 kts 356°
2026-05-05 12:01 -7.27776 -64.76948 240 ft 81 kts 359°
2026-05-05 12:01 -7.27152 -64.76976 439 ft 90 kts 355°
2026-05-05 12:02 -7.26632 -64.77252 698 ft 97 kts 296°
2026-05-05 12:02 -7.26505 -64.77972 822 ft 116 kts 258°
2026-05-05 12:02 -7.27106 -64.78554 942 ft 131 kts 204°
2026-05-05 12:02 -7.27963 -64.78935 1104 ft 138 kts 197°
2026-05-05 12:03 -7.28931 -64.79004 1248 ft 142 kts 174°
2026-05-05 12:03 -7.29910 -64.78939 1399 ft 144 kts 175°
2026-05-05 12:03 -7.30915 -64.78867 1556 ft 145 kts 172°
2026-05-05 12:03 -7.31917 -64.78703 1706 ft 146 kts 166°
2026-05-05 12:04 -7.32913 -64.78497 1847 ft 146 kts 167°
2026-05-05 12:04 -7.33910 -64.78294 2001 ft 146 kts 167°
2026-05-05 12:04 -7.34909 -64.78092 2147 ft 146 kts 167°
2026-05-05 12:04 -7.35903 -64.77892 2291 ft 146 kts 166°
2026-05-05 12:05 -7.36896 -64.77696 2436 ft 145 kts 167°
2026-05-05 12:05 -7.37886 -64.77498 2584 ft 145 kts 167°
2026-05-05 12:05 -7.38873 -64.77301 2727 ft 144 kts 167°
2026-05-05 12:05 -7.39860 -64.77125 2872 ft 144 kts 170°
2026-05-05 12:06 -7.40853 -64.77023 3017 ft 143 kts 172°
2026-05-05 12:06 -7.41849 -64.76919 3166 ft 144 kts 172°
2026-05-05 12:06 -7.42842 -64.76817 3308 ft 143 kts 172°
2026-05-05 12:06 -7.43836 -64.76718 3450 ft 144 kts 172°
2026-05-05 12:07 -7.44817 -64.76621 3592 ft 143 kts 172°
2026-05-05 12:07 -7.45807 -64.76526 3738 ft 143 kts 171°
2026-05-05 12:07 -7.46796 -64.76437 3877 ft 142 kts 172°
2026-05-05 12:07 -7.47783 -64.76345 4029 ft 142 kts 171°
2026-05-05 12:08 -7.48771 -64.76256 4167 ft 142 kts 171°
2026-05-05 12:08 -7.49753 -64.76172 4313 ft 141 kts 171°
2026-05-05 12:08 -7.50730 -64.76089 4457 ft 141 kts 171°
2026-05-05 12:08 -7.51708 -64.76007 4564 ft 144 kts 172°
2026-05-05 12:09 -7.52732 -64.75918 4569 ft 151 kts 171°
2026-05-05 12:09 -7.53792 -64.75824 4577 ft 155 kts 171°
2026-05-05 12:09 -7.54881 -64.75723 4581 ft 159 kts 172°
2026-05-05 12:09 -7.55968 -64.75622 4580 ft 159 kts 171°
2026-05-05 12:10 -7.57068 -64.75523 4580 ft 158 kts 171°
2026-05-05 12:10 -7.58167 -64.75421 4582 ft 158 kts 171°
2026-05-05 12:10 -7.59264 -64.75315 4583 ft 159 kts 171°
2026-05-05 12:10 -7.60363 -64.75213 4583 ft 158 kts 171°
2026-05-05 12:11 -7.61459 -64.75112 4582 ft 158 kts 171°
2026-05-05 12:11 -7.62556 -64.75010 4583 ft 158 kts 171°
2026-05-05 12:11 -7.63650 -64.74909 4583 ft 158 kts 171°
2026-05-05 12:11 -7.64745 -64.74809 4582 ft 158 kts 171°
2026-05-05 12:12 -7.65834 -64.74705 4581 ft 157 kts 171°
2026-05-05 12:12 -7.66909 -64.74603 4583 ft 157 kts 171°
2026-05-05 12:12 -7.67999 -64.74499 4584 ft 158 kts 171°
2026-05-05 12:12 -7.69091 -64.74392 4584 ft 158 kts 171°
2026-05-05 12:13 -7.70181 -64.74288 4582 ft 157 kts 171°
2026-05-05 12:13 -7.71271 -64.74182 4583 ft 157 kts 171°
2026-05-05 12:13 -7.72360 -64.74073 4582 ft 158 kts 171°
2026-05-05 12:13 -7.73452 -64.73965 4583 ft 158 kts 171°
2026-05-05 12:14 -7.74545 -64.73855 4580 ft 158 kts 171°
2026-05-05 12:14 -7.75639 -64.73747 4580 ft 158 kts 171°
2026-05-05 12:14 -7.76735 -64.73638 4583 ft 158 kts 171°
2026-05-05 12:14 -7.77828 -64.73527 4581 ft 158 kts 171°
2026-05-05 12:15 -7.78906 -64.73420 4586 ft 158 kts 171°
2026-05-05 12:15 -7.79997 -64.73307 4582 ft 158 kts 171°
2026-05-05 12:15 -7.81093 -64.73198 4583 ft 158 kts 171°
2026-05-05 12:15 -7.82188 -64.73087 4580 ft 158 kts 171°
2026-05-05 12:16 -7.83283 -64.72974 4584 ft 158 kts 171°
2026-05-05 12:16 -7.84379 -64.72860 4577 ft 158 kts 171°
2026-05-05 12:16 -7.85474 -64.72744 4583 ft 158 kts 171°
2026-05-05 12:16 -7.86568 -64.72628 4585 ft 158 kts 171°
2026-05-05 12:17 -7.87661 -64.72510 4582 ft 158 kts 171°
2026-05-05 12:17 -7.88755 -64.72392 4582 ft 158 kts 171°
2026-05-05 12:17 -7.89847 -64.72275 4582 ft 157 kts 171°
2026-05-05 12:17 -7.90940 -64.72156 4582 ft 158 kts 171°
2026-05-05 12:18 -7.92037 -64.72038 4584 ft 158 kts 171°
2026-05-05 12:18 -7.93130 -64.71920 4584 ft 158 kts 171°
2026-05-05 12:18 -7.94211 -64.71803 4585 ft 158 kts 171°
2026-05-05 12:18 -7.95307 -64.71684 4583 ft 158 kts 171°
2026-05-05 12:19 -7.96402 -64.71564 4582 ft 158 kts 171°
2026-05-05 12:19 -7.97500 -64.71442 4585 ft 158 kts 171°
2026-05-05 12:19 -7.98594 -64.71321 4584 ft 158 kts 171°
2026-05-05 12:19 -7.99691 -64.71199 4579 ft 158 kts 171°
2026-05-05 12:20 -8.00784 -64.71077 4581 ft 158 kts 171°
2026-05-05 12:20 -8.01877 -64.70956 4580 ft 158 kts 171°
2026-05-05 12:20 -8.02971 -64.70834 4582 ft 158 kts 171°
2026-05-05 12:20 -8.04064 -64.70711 4582 ft 158 kts 171°
2026-05-05 12:21 -8.05154 -64.70588 4581 ft 158 kts 171°
2026-05-05 12:21 -8.06248 -64.70463 4579 ft 158 kts 171°
2026-05-05 12:21 -8.07342 -64.70338 4583 ft 158 kts 171°
2026-05-05 12:21 -8.08419 -64.70221 4580 ft 158 kts 173°
2026-05-05 12:22 -8.09522 -64.70200 4582 ft 159 kts 176°
2026-05-05 12:22 -8.10625 -64.70189 4579 ft 159 kts 176°
2026-05-05 12:22 -8.11732 -64.70177 4581 ft 159 kts 176°
2026-05-05 12:22 -8.12839 -64.70164 4581 ft 159 kts 176°
2026-05-05 12:23 -8.13942 -64.70151 4582 ft 159 kts 176°
2026-05-05 12:23 -8.15049 -64.70138 4580 ft 159 kts 176°
2026-05-05 12:23 -8.16155 -64.70127 4581 ft 159 kts 176°
2026-05-05 12:23 -8.17261 -64.70115 4579 ft 159 kts 176°
2026-05-05 12:24 -8.18365 -64.70103 4582 ft 159 kts 176°
2026-05-05 12:24 -8.19472 -64.70089 4580 ft 159 kts 176°
2026-05-05 12:24 -8.20578 -64.70075 4579 ft 159 kts 176°
2026-05-05 12:24 -8.21682 -64.70061 4579 ft 159 kts 176°
2026-05-05 12:25 -8.22787 -64.70047 4580 ft 159 kts 176°
2026-05-05 12:25 -8.23878 -64.70034 4581 ft 159 kts 176°
2026-05-05 12:25 -8.24986 -64.70019 4581 ft 159 kts 176°
2026-05-05 12:25 -8.26093 -64.70005 4579 ft 159 kts 176°
2026-05-05 12:26 -8.27200 -64.69989 4582 ft 159 kts 176°
2026-05-05 12:26 -8.28308 -64.69974 4580 ft 159 kts 176°
2026-05-05 12:26 -8.29417 -64.69958 4579 ft 159 kts 176°
2026-05-05 12:26 -8.30526 -64.69942 4582 ft 159 kts 176°
2026-05-05 12:27 -8.31634 -64.69924 4580 ft 159 kts 176°
2026-05-05 12:27 -8.32741 -64.69906 4583 ft 159 kts 176°
2026-05-05 12:27 -8.33849 -64.69889 4582 ft 159 kts 176°
2026-05-05 12:27 -8.34956 -64.69870 4582 ft 159 kts 176°
2026-05-05 12:28 -8.36064 -64.69851 4581 ft 159 kts 176°
2026-05-05 12:28 -8.37158 -64.69834 4581 ft 159 kts 176°
2026-05-05 12:28 -8.38265 -64.69817 4581 ft 159 kts 176°
2026-05-05 12:28 -8.39372 -64.69798 4582 ft 159 kts 176°
2026-05-05 12:29 -8.40479 -64.69779 4578 ft 159 kts 176°
2026-05-05 12:29 -8.41583 -64.69758 4579 ft 159 kts 176°
2026-05-05 12:29 -8.42691 -64.69735 4579 ft 159 kts 176°
2026-05-05 12:29 -8.43795 -64.69713 4578 ft 159 kts 176°
2026-05-05 12:30 -8.44899 -64.69690 4578 ft 159 kts 176°
2026-05-05 12:30 -8.45998 -64.69666 4583 ft 160 kts 176°
2026-05-05 12:30 -8.47109 -64.69643 4580 ft 160 kts 176°
2026-05-05 12:30 -8.48218 -64.69618 4579 ft 159 kts 176°
2026-05-05 12:31 -8.49326 -64.69592 4579 ft 160 kts 176°
2026-05-05 12:31 -8.50437 -64.69566 4581 ft 159 kts 176°
2026-05-05 12:31 -8.51546 -64.69542 4583 ft 159 kts 176°
2026-05-05 12:31 -8.52656 -64.69517 4579 ft 160 kts 176°
2026-05-05 12:32 -8.53769 -64.69492 4579 ft 160 kts 176°
2026-05-05 12:32 -8.54880 -64.69466 4579 ft 160 kts 176°
2026-05-05 12:32 -8.55991 -64.69440 4580 ft 160 kts 176°
2026-05-05 12:32 -8.57104 -64.69413 4582 ft 160 kts 176°
2026-05-05 12:33 -8.58217 -64.69384 4582 ft 160 kts 176°
2026-05-05 12:33 -8.59313 -64.69357 4582 ft 160 kts 176°
2026-05-05 12:33 -8.60424 -64.69327 4582 ft 160 kts 176°
2026-05-05 12:33 -8.61535 -64.69298 4581 ft 160 kts 176°
2026-05-05 12:34 -8.62647 -64.69270 4580 ft 160 kts 176°
2026-05-05 12:34 -8.63756 -64.69242 4582 ft 160 kts 176°
2026-05-05 12:34 -8.64867 -64.69214 4581 ft 160 kts 176°
2026-05-05 12:34 -8.65981 -64.69185 4581 ft 160 kts 176°
2026-05-05 12:35 -8.67096 -64.69154 4583 ft 161 kts 176°
2026-05-05 12:35 -8.68216 -64.69121 4584 ft 161 kts 176°
2026-05-05 12:35 -8.69338 -64.69087 4585 ft 162 kts 175°
2026-05-05 12:35 -8.70456 -64.69054 4587 ft 163 kts 176°
2026-05-05 12:36 -8.71590 -64.69018 4585 ft 163 kts 176°
2026-05-05 12:36 -8.72727 -64.68984 4588 ft 164 kts 175°
2026-05-05 12:36 -8.73868 -64.68950 4587 ft 164 kts 175°
2026-05-05 12:36 -8.75005 -64.68913 4589 ft 163 kts 175°
2026-05-05 12:37 -8.76141 -64.68880 4590 ft 163 kts 175°
2026-05-05 12:37 -8.77275 -64.68845 4589 ft 162 kts 175°
2026-05-05 12:37 -8.78403 -64.68812 4587 ft 162 kts 175°
2026-05-05 12:37 -8.79537 -64.68772 4586 ft 162 kts 175°
2026-05-05 12:38 -8.80658 -64.68731 4584 ft 161 kts 176°
2026-05-05 12:38 -8.81772 -64.68698 4582 ft 159 kts 176°
2026-05-05 12:38 -8.82882 -64.68663 4580 ft 159 kts 175°
2026-05-05 12:38 -8.83973 -64.68628 4579 ft 159 kts 175°
2026-05-05 12:39 -8.85080 -64.68592 4579 ft 159 kts 175°
2026-05-05 12:39 -8.86184 -64.68554 4579 ft 158 kts 175°
2026-05-05 12:39 -8.87287 -64.68515 4578 ft 158 kts 175°
2026-05-05 12:39 -8.88387 -64.68477 4577 ft 158 kts 175°
2026-05-05 12:40 -8.89487 -64.68437 4579 ft 158 kts 175°
2026-05-05 12:40 -8.90589 -64.68397 4576 ft 158 kts 175°
2026-05-05 12:40 -8.91690 -64.68356 4578 ft 158 kts 175°
2026-05-05 12:40 -8.92792 -64.68315 4576 ft 158 kts 175°
2026-05-05 12:41 -8.93893 -64.68272 4577 ft 158 kts 175°
2026-05-05 12:41 -8.94996 -64.68229 4577 ft 159 kts 175°
2026-05-05 12:41 -8.96083 -64.68186 4576 ft 159 kts 175°
2026-05-05 12:41 -8.97187 -64.68142 4575 ft 159 kts 175°
2026-05-05 12:42 -8.98291 -64.68097 4578 ft 159 kts 175°
2026-05-05 12:42 -8.99395 -64.68052 4578 ft 159 kts 175°
2026-05-05 12:42 -9.00504 -64.68007 4577 ft 160 kts 175°
2026-05-05 12:42 -9.01613 -64.67959 4576 ft 159 kts 175°
2026-05-05 12:43 -9.02720 -64.67913 4578 ft 159 kts 175°
2026-05-05 12:43 -9.03828 -64.67863 4578 ft 159 kts 175°
2026-05-05 12:43 -9.04936 -64.67814 4574 ft 159 kts 175°
2026-05-05 12:43 -9.06027 -64.67768 4579 ft 159 kts 175°
2026-05-05 12:44 -9.07132 -64.67721 4581 ft 159 kts 175°
2026-05-05 12:44 -9.08241 -64.67679 4578 ft 159 kts 176°
2026-05-05 12:44 -9.09330 -64.67909 4563 ft 161 kts 194°
2026-05-05 12:44 -9.10406 -64.68235 4565 ft 161 kts 194°
2026-05-05 12:45 -9.11482 -64.68555 4563 ft 161 kts 194°
2026-05-05 12:45 -9.12560 -64.68875 4575 ft 162 kts 194°
2026-05-05 12:45 -9.13648 -64.69199 4571 ft 164 kts 194°
2026-05-05 12:45 -9.14737 -64.69522 4560 ft 163 kts 194°
2026-05-05 12:46 -9.15821 -64.69843 4567 ft 162 kts 194°
2026-05-05 12:46 -9.16539 -64.70054 4560 ft 162 kts 194°
2026-05-05 12:46 -9.17969 -64.70474 4566 ft 161 kts 194°
2026-05-05 12:46 -9.19047 -64.70789 4560 ft 161 kts 194°
2026-05-05 12:47 -9.20127 -64.71105 4565 ft 162 kts 194°
2026-05-05 12:47 -9.21208 -64.71421 4566 ft 161 kts 194°
2026-05-05 12:47 -9.21938 -64.71634 4568 ft 161 kts 194°
2026-05-05 12:47 -9.23364 -64.72050 4563 ft 161 kts 194°
2026-05-05 12:48 -9.24076 -64.72257 4563 ft 161 kts 194°
2026-05-05 12:48 -9.25160 -64.72572 4571 ft 163 kts 194°
2026-05-05 12:48 -9.26254 -64.72887 4566 ft 163 kts 194°
2026-05-05 12:48 -9.27342 -64.73201 4578 ft 162 kts 194°
2026-05-05 12:49 -9.28430 -64.73516 4569 ft 162 kts 193°
2026-05-05 12:49 -9.29511 -64.73829 4569 ft 161 kts 194°
2026-05-05 12:49 -9.30592 -64.74141 4565 ft 161 kts 194°
2026-05-05 12:49 -9.31670 -64.74450 4567 ft 161 kts 194°
2026-05-05 12:50 -9.32748 -64.74760 4575 ft 161 kts 194°
2026-05-05 12:50 -9.33820 -64.75064 4567 ft 162 kts 194°
2026-05-05 12:50 -9.34902 -64.75369 4568 ft 161 kts 194°
2026-05-05 12:50 -9.35982 -64.75676 4564 ft 161 kts 194°
2026-05-05 12:51 -9.37061 -64.75983 4566 ft 161 kts 194°
2026-05-05 12:51 -9.38142 -64.76291 4564 ft 161 kts 194°
2026-05-05 12:51 -9.39220 -64.76597 4568 ft 161 kts 194°
2026-05-05 12:51 -9.40297 -64.76901 4577 ft 161 kts 193°
2026-05-05 12:52 -9.41385 -64.77207 4565 ft 162 kts 194°
2026-05-05 12:52 -9.42469 -64.77512 4566 ft 161 kts 194°
2026-05-05 12:52 -9.43552 -64.77816 4569 ft 161 kts 194°
2026-05-05 12:52 -9.44633 -64.78118 4570 ft 161 kts 193°
2026-05-05 12:53 -9.45717 -64.78419 4571 ft 163 kts 193°
2026-05-05 12:53 -9.46808 -64.78724 4567 ft 162 kts 193°
2026-05-05 12:53 -9.47892 -64.79026 4576 ft 162 kts 194°
2026-05-05 12:53 -9.48989 -64.79332 4582 ft 165 kts 193°
2026-05-05 12:54 -9.51225 -64.79954 4577 ft 167 kts 193°
2026-05-05 12:54 -9.52341 -64.80262 4573 ft 164 kts 193°
2026-05-05 12:54 -9.53439 -64.80568 4574 ft 163 kts 193°
2026-05-05 12:55 -9.54529 -64.80870 4572 ft 162 kts 193°
2026-05-05 12:55 -9.55615 -64.81169 4573 ft 162 kts 193°
2026-05-05 12:55 -9.56704 -64.81468 4579 ft 163 kts 193°
2026-05-05 12:55 -9.57811 -64.81771 4572 ft 165 kts 193°
2026-05-05 12:56 -9.58918 -64.82073 4568 ft 165 kts 193°
2026-05-05 12:56 -9.60019 -64.82372 4572 ft 163 kts 193°
2026-05-05 12:56 -9.61097 -64.82666 4568 ft 162 kts 193°
2026-05-05 12:56 -9.62198 -64.82966 4568 ft 161 kts 193°
2026-05-05 12:57 -9.63270 -64.83257 4570 ft 161 kts 193°
2026-05-05 12:57 -9.64356 -64.83552 4586 ft 163 kts 193°
2026-05-05 12:57 -9.65476 -64.83854 4572 ft 168 kts 193°
2026-05-05 12:57 -9.66593 -64.84153 4571 ft 164 kts 193°
2026-05-05 12:58 -9.67698 -64.84449 4582 ft 166 kts 193°
2026-05-05 12:58 -9.68814 -64.84747 4573 ft 164 kts 193°
2026-05-05 12:58 -9.69912 -64.85041 4571 ft 162 kts 193°
2026-05-05 12:58 -9.71003 -64.85333 4566 ft 162 kts 193°
2026-05-05 12:59 -9.72077 -64.85620 4569 ft 161 kts 193°
2026-05-05 12:59 -9.73162 -64.85907 4570 ft 161 kts 193°
2026-05-05 12:59 -9.74245 -64.86193 4565 ft 161 kts 193°
2026-05-05 13:00 -9.76433 -64.86769 4569 ft 162 kts 193°
2026-05-05 13:00 -9.77522 -64.87054 4571 ft 161 kts 193°
2026-05-05 13:01 -9.80793 -64.87917 4572 ft 162 kts 193°
2026-05-05 13:01 -9.81881 -64.88204 4574 ft 162 kts 193°
2026-05-05 13:01 -9.82973 -64.88491 4570 ft 162 kts 193°
2026-05-05 13:01 -9.84063 -64.88775 4570 ft 161 kts 193°
2026-05-05 13:02 -9.85149 -64.89058 4569 ft 161 kts 193°
2026-05-05 13:02 -9.86222 -64.89337 4570 ft 161 kts 193°
2026-05-05 13:02 -9.87310 -64.89621 4570 ft 161 kts 193°
2026-05-05 13:02 -9.88395 -64.89905 4572 ft 161 kts 193°
2026-05-05 13:03 -9.89486 -64.90189 4570 ft 162 kts 193°
2026-05-05 13:03 -9.90579 -64.90475 4568 ft 162 kts 193°
2026-05-05 13:03 -9.91672 -64.90760 4571 ft 162 kts 193°
2026-05-05 13:03 -9.92766 -64.91043 4571 ft 162 kts 193°
2026-05-05 13:04 -9.93861 -64.91326 4569 ft 162 kts 193°
2026-05-05 13:04 -9.94939 -64.91606 4571 ft 162 kts 193°
2026-05-05 13:04 -9.96032 -64.91888 4575 ft 162 kts 193°
2026-05-05 13:04 -9.97131 -64.92172 4564 ft 163 kts 193°
2026-05-05 13:05 -9.98233 -64.92457 4564 ft 163 kts 193°
2026-05-05 13:05 -9.99329 -64.92743 4565 ft 162 kts 193°
2026-05-05 13:05 -10.00424 -64.93027 4563 ft 162 kts 193°
2026-05-05 13:05 -10.01521 -64.93312 4571 ft 162 kts 193°
2026-05-05 13:06 -10.02617 -64.93597 4566 ft 162 kts 193°
2026-05-05 13:06 -10.03713 -64.93877 4574 ft 163 kts 193°
2026-05-05 13:06 -10.04817 -64.94159 4565 ft 163 kts 193°
2026-05-05 13:06 -10.05901 -64.94436 4569 ft 163 kts 193°
2026-05-05 13:07 -10.07001 -64.94715 4569 ft 163 kts 193°
2026-05-05 13:07 -10.08100 -64.94992 4564 ft 162 kts 193°
2026-05-05 13:07 -10.09197 -64.95272 4565 ft 162 kts 192°
2026-05-05 13:07 -10.10294 -64.95552 4569 ft 163 kts 192°
2026-05-05 13:08 -10.11393 -64.95832 4569 ft 163 kts 192°
2026-05-05 13:08 -10.12493 -64.96112 4572 ft 163 kts 193°
2026-05-05 13:08 -10.13595 -64.96392 4568 ft 163 kts 192°
2026-05-05 13:08 -10.14686 -64.96666 4574 ft 165 kts 192°
2026-05-05 13:09 -10.15811 -64.96949 4579 ft 164 kts 192°
2026-05-05 13:09 -10.16917 -64.97224 4573 ft 163 kts 192°
2026-05-05 13:09 -10.18009 -64.97498 4573 ft 163 kts 192°
2026-05-05 13:09 -10.19112 -64.97776 4571 ft 164 kts 192°
2026-05-05 13:10 -10.20216 -64.98053 4571 ft 163 kts 193°
2026-05-05 13:10 -10.21318 -64.98330 4564 ft 163 kts 193°
2026-05-05 13:10 -10.22420 -64.98605 4565 ft 163 kts 192°
2026-05-05 13:10 -10.23525 -64.98878 4566 ft 163 kts 192°
2026-05-05 13:11 -10.24629 -64.99151 4565 ft 163 kts 192°
2026-05-05 13:11 -10.25729 -64.99422 4570 ft 163 kts 192°
2026-05-05 13:11 -10.26827 -64.99692 4567 ft 163 kts 192°
2026-05-05 13:11 -10.27928 -64.99962 4568 ft 163 kts 192°
2026-05-05 13:12 -10.29031 -65.00235 4565 ft 163 kts 192°
2026-05-05 13:12 -10.30130 -65.00510 4565 ft 163 kts 193°
2026-05-05 13:12 -10.31233 -65.00784 4567 ft 163 kts 192°
2026-05-05 13:12 -10.32336 -65.01057 4569 ft 163 kts 192°
2026-05-05 13:13 -10.33424 -65.01324 4570 ft 163 kts 192°
2026-05-05 13:13 -10.34523 -65.01593 4567 ft 163 kts 192°
2026-05-05 13:13 -10.35626 -65.01860 4567 ft 162 kts 192°
2026-05-05 13:13 -10.36725 -65.02128 4569 ft 162 kts 192°
2026-05-05 13:14 -10.37831 -65.02397 4567 ft 164 kts 192°
2026-05-05 13:14 -10.38943 -65.02668 4574 ft 165 kts 192°
2026-05-05 13:14 -10.40062 -65.02938 4572 ft 165 kts 192°
2026-05-05 13:14 -10.41161 -65.03207 4579 ft 166 kts 192°
2026-05-05 13:15 -10.42287 -65.03481 4574 ft 165 kts 192°
2026-05-05 13:15 -10.43405 -65.03753 4582 ft 167 kts 192°
2026-05-05 13:15 -10.44543 -65.04029 4574 ft 166 kts 192°
2026-05-05 13:15 -10.45662 -65.04303 4575 ft 164 kts 192°
2026-05-05 13:16 -10.46773 -65.04572 4575 ft 164 kts 192°
2026-05-05 13:16 -10.47881 -65.04835 4572 ft 163 kts 192°
2026-05-05 13:16 -10.48986 -65.05102 4576 ft 163 kts 192°
2026-05-05 13:16 -10.50087 -65.05368 4574 ft 163 kts 192°
2026-05-05 13:17 -10.51192 -65.05634 4570 ft 163 kts 192°
2026-05-05 13:17 -10.52296 -65.05903 4571 ft 163 kts 192°
2026-05-05 13:17 -10.53401 -65.06172 4568 ft 163 kts 192°
2026-05-05 13:17 -10.54505 -65.06439 4568 ft 163 kts 192°
2026-05-05 13:18 -10.55612 -65.06705 4567 ft 163 kts 192°
2026-05-05 13:18 -10.56715 -65.06968 4568 ft 163 kts 192°
2026-05-05 13:18 -10.57807 -65.07228 4569 ft 163 kts 192°
2026-05-05 13:18 -10.58911 -65.07491 4567 ft 163 kts 192°
2026-05-05 13:19 -10.60015 -65.07752 4569 ft 163 kts 192°
2026-05-05 13:19 -10.61123 -65.08016 4571 ft 164 kts 192°
2026-05-05 13:19 -10.62232 -65.08282 4567 ft 163 kts 192°
2026-05-05 13:19 -10.63343 -65.08551 4572 ft 164 kts 192°
2026-05-05 13:20 -10.64472 -65.08818 4569 ft 166 kts 192°
2026-05-05 13:20 -10.65598 -65.09084 4584 ft 168 kts 192°
2026-05-05 13:20 -10.66736 -65.09353 4585 ft 167 kts 192°
2026-05-05 13:20 -10.67871 -65.09618 4573 ft 166 kts 191°
2026-05-05 13:21 -10.68990 -65.09881 4570 ft 164 kts 192°
2026-05-05 13:21 -10.70106 -65.10143 4579 ft 169 kts 192°
2026-05-05 13:21 -10.71250 -65.10411 4577 ft 167 kts 191°
2026-05-05 13:21 -10.72380 -65.10676 4574 ft 166 kts 192°
2026-05-05 13:22 -10.73520 -65.10940 4587 ft 171 kts 192°
2026-05-05 13:22 -10.74688 -65.11209 4574 ft 170 kts 192°
2026-05-05 13:22 -10.75828 -65.11472 4571 ft 166 kts 192°
2026-05-05 13:22 -10.76780 -65.11846 4508 ft 132 kts 220°
2026-05-05 13:23 -10.77352 -65.12522 4327 ft 120 kts 230°
2026-05-05 13:23 -10.77898 -65.13142 4140 ft 118 kts 229°
2026-05-05 13:23 -10.78456 -65.13771 3968 ft 120 kts 229°
2026-05-05 13:23 -10.79017 -65.14398 3787 ft 122 kts 229°
2026-05-05 13:24 -10.79595 -65.15039 3595 ft 122 kts 229°
2026-05-05 13:24 -10.80172 -65.15673 3416 ft 122 kts 229°
2026-05-05 13:24 -10.80595 -65.16468 3222 ft 144 kts 253°
2026-05-05 13:24 -10.80937 -65.17506 3050 ft 162 kts 253°
2026-05-05 13:25 -10.81228 -65.18623 2875 ft 167 kts 263°
2026-05-05 13:25 -10.81289 -65.19826 2694 ft 172 kts 271°
2026-05-05 13:25 -10.81289 -65.21045 2507 ft 172 kts 271°
2026-05-05 13:25 -10.81294 -65.22267 2348 ft 176 kts 271°
2026-05-05 13:26 -10.81120 -65.23491 2112 ft 174 kts 292°
2026-05-05 13:26 -10.80479 -65.24523 1906 ft 173 kts 309°
2026-05-05 13:26 -10.79718 -65.25463 1705 ft 171 kts 308°
2026-05-05 13:26 -10.78972 -65.26389 1507 ft 169 kts 310°
2026-05-05 13:27 -10.78222 -65.27309 1429 ft 167 kts 309°
2026-05-05 13:27 -10.77576 -65.28275 1402 ft 165 kts 291°
2026-05-05 13:27 -10.77701 -65.29409 1334 ft 168 kts 242°
2026-05-05 13:27 -10.78522 -65.30249 1316 ft 167 kts 223°
2026-05-05 13:28 -10.79373 -65.31024 1325 ft 166 kts 224°
2026-05-05 13:28 -10.80221 -65.31775 1302 ft 151 kts 217°
2026-05-05 13:28 -10.81184 -65.31909 1239 ft 138 kts 162°
2026-05-05 13:28 -10.81998 -65.31563 1208 ft 116 kts 165°
2026-05-05 13:29 -10.82731 -65.31342 1190 ft 104 kts 163°
2026-05-05 13:29 -10.83392 -65.31143 1165 ft 95 kts 165°
2026-05-05 13:29 -10.84000 -65.30947 1149 ft 89 kts 164°
2026-05-05 13:29 -10.84602 -65.30752 1142 ft 91 kts 163°
2026-05-05 13:30 -10.85071 -65.30374 1075 ft 92 kts 103°
2026-05-05 13:30 -10.84872 -65.29778 1039 ft 87 kts 61°
2026-05-05 13:30 -10.84471 -65.29315 986 ft 88 kts 41°
2026-05-05 13:30 -10.84040 -65.28900 944 ft 80 kts 40°
2026-05-05 13:31 -10.83643 -65.28532 932 ft 75 kts 40°
2026-05-05 13:31 -10.83276 -65.28182 927 ft 73 kts 39°
2026-05-05 13:31 -10.82917 -65.27846 896 ft 65 kts 40°
2026-05-05 13:31 -10.82570 -65.27527 890 ft 71 kts 40°
2026-05-05 13:32 -10.82179 -65.27242 865 ft 69 kts 37°
2026-05-05 13:32 -10.81809 -65.26986 788 ft 70 kts 348°
2026-05-05 13:32 -10.81362 -65.27212 771 ft 81 kts 340°
2026-05-05 13:32 -10.80827 -65.27540 823 ft 95 kts 322°
2026-05-05 13:33 -10.80344 -65.27948 684 ft 83 kts 324°
2026-05-05 13:33 -10.79878 -65.28198 636 ft 72 kts 342°
2026-05-05 13:33 -10.79375 -65.28315 518 ft 76 kts 345°
2026-05-05 13:33 -10.78889 -65.28434 487 ft 67 kts 345°
2026-05-05 13:34 -10.78501 -65.28511 482 ft 38 kts
2026-05-05 13:34 -10.78489 -65.28541 480 ft 15 kts 161°
2026-05-05 13:34 -10.78626 -65.28510 481 ft 25 kts 165°
2026-05-05 13:34 -10.78826 -65.28448 487 ft 30 kts 162°
2026-05-05 13:35 -10.78922 -65.28346 485 ft 10 kts 71°
2026-05-05 13:35 -10.78921 -65.28341 486 ft 0 kts 70°
2026-05-05 13:35 -10.78919 -65.28331 486 ft 7 kts 80°
2026-05-05 13:36 -10.78903 -65.28260 487 ft 7 kts 340°
2026-05-05 13:36 -10.78901 -65.28263 486 ft 0 kts 241°